Tracking 28052 objects as of 23-Sep-2023
HD Live streaming from Space Station
objects crossing your sky now

STARLINK-3045

Track STARLINK-3045 now!
10-day predictions
STARLINK-3045 is classified as:


NORAD ID: 49173
Int'l Code: 2021-082AV
Perigee: 577.1 km
Apogee: 581.3 km
Inclination: 70.0 °
Period: 96.1 minutes
Semi major axis: 6950 km
RCS: Unknown
Launch date: September 14, 2021
Source: United States (US)
Launch site: AIR FORCE WESTERN TEST RANGE (AFWTR)
Your satellite tracking list
Your tracking list is empty




NASA's NSSDC Master Catalog

Two Line Element Set (TLE):
1 49173U 21082AV  23265.56541364  .00004249  00000-0  36363-3 0  9992
2 49173  70.0033  21.4633 0003041 273.4816  86.5995 14.98338876111795
Source of the keplerian elements: AFSPC